Location: Archemont
(49.1579°N, 1.7598°E)
Time: 11:12:31
(UTC+00:00)

Vanguard 3 - Pass Details

Date: 25 April 2024
Orbit: 509 x 3233 km, 33.3° (Epoch: 25 May)

Event Time Altitude Azimuth Distance (km) Brightness Sun altitude
Exits shadow 03:19:27 14° 227° (SW) 5,249 10.6 -12.5°
Maximum altitude 03:31:10 35° 175° (S) 3,106 9.8 -11.0°
Drops below altitude 10° 03:40:10 10° 114° (ESE) 3,730 11.0 -9.7°
Sets 03:42:59 0° 105° (ESE) 4,380 11.6 -9.4°
